TimeCST,TemperatureF,Dew PointF,Humidity,Sea Level PressureIn,VisibilityMPH,Wind Direction,Wind SpeedMPH,Gust SpeedMPH,PrecipitationIn,Events,Conditions,WindDirDegrees,DateUTC
12:53 AM,-0.0,-2.0,91,30.22,10.0,WNW,3.5,-,N/A,,Clear,300,2013-01-01 06:53:00
1:53 AM,-4.0,-8.0,83,30.21,10.0,Calm,Calm,-,N/A,,Clear,0,2013-01-01 07:53:00
2:53 AM,-8.0,-11.9,83,30.23,10.0,Calm,Calm,-,N/A,,Clear,0,2013-01-01 08:53:00
3:53 AM,-2.9,-7.1,82,30.22,10.0,Calm,Calm,-,N/A,,Clear,0,2013-01-01 09:53:00
4:53 AM,-9.9,-15.0,78,30.24,10.0,Calm,Calm,-,N/A,,Clear,0,2013-01-01 10:53:00
5:53 AM,-13.0,-17.0,82,30.27,10.0,Calm,Calm,-,N/A,,Clear,0,2013-01-01 11:53:00
6:53 AM,-14.1,-18.9,79,30.27,10.0,Calm,Calm,-,N/A,,Clear,0,2013-01-01 12:53:00
7:53 AM,-11.9,-18.0,74,30.28,10.0,South,3.5,-,N/A,,Clear,190,2013-01-01 13:53:00
8:53 AM,-5.1,-9.9,80,30.28,10.0,South,3.5,-,N/A,,Clear,190,2013-01-01 14:53:00
9:53 AM,-0.0,-5.1,79,30.28,10.0,SSE,3.5,-,N/A,,Clear,150,2013-01-01 15:53:00
10:53 AM,1.9,-4.0,76,30.25,10.0,Calm,Calm,-,N/A,,Clear,0,2013-01-01 16:53:00
11:53 AM,6.1,-0.9,73,30.24,10.0,SW,4.6,-,N/A,,Clear,230,2013-01-01 17:53:00
12:53 PM,10.0,-0.0,64,30.22,10.0,West,3.5,-,N/A,,Clear,260,2013-01-01 18:53:00
1:53 PM,9.0,1.0,70,30.21,10.0,SSW,9.2,-,N/A,,Clear,210,2013-01-01 19:53:00
2:53 PM,10.0,-0.0,64,30.21,10.0,SW,6.9,-,N/A,,Clear,230,2013-01-01 20:53:00
3:53 PM,9.0,-0.9,64,30.20,10.0,SW,5.8,-,N/A,,Clear,220,2013-01-01 21:53:00
4:53 PM,6.1,-2.9,67,30.20,10.0,SW,5.8,-,N/A,,Clear,220,2013-01-01 22:53:00
5:53 PM,5.0,-2.9,70,30.21,10.0,WSW,4.6,-,N/A,,Clear,240,2013-01-01 23:53:00
6:53 PM,3.9,-4.0,70,30.21,10.0,WSW,5.8,-,N/A,,Clear,240,2013-01-02 00:53:00
7:53 PM,1.9,-5.1,72,30.21,10.0,SW,4.6,-,N/A,,Partly Cloudy,220,2013-01-02 01:53:00
8:07 PM,1.4,-5.8,72,30.12,10.0,SSW,5.8,-,N/A,,Mostly Cloudy,210,2013-01-02 02:07:00
8:53 PM,5.0,-4.0,66,30.19,10.0,SW,6.9,-,N/A,,Overcast,220,2013-01-02 02:53:00
9:53 PM,6.1,-4.0,63,30.17,10.0,SW,5.8,-,N/A,,Overcast,220,2013-01-02 03:53:00
10:53 PM,5.0,-4.0,66,30.17,10.0,SW,6.9,-,N/A,,Overcast,230,2013-01-02 04:53:00
11:53 PM,7.0,-2.0,67,30.16,10.0,WSW,8.1,-,N/A,,Overcast,240,2013-01-02 05:53:00